PICKLE4 KMEM-KMEM

Flight info

Callsign PICKLE4
Flight time 0h 6m
Altitude VFR/021
Route PATTERNS
Aircraft F35/M-DOV/C

Departure

Time 2026-05-07 02:57
Airport Memphis International Airport (KMEM)

Arrival

Time 2026-05-07 03:04
Airport Memphis International Airport (KMEM)
Time Latitude Longitude Altitude Speed Heading
2026-05-07 02:46 35.05478 -89.98146 298 ft 0 kts 91°
2026-05-07 02:55 35.05470 -89.98146 334 ft 5 kts 96°
2026-05-07 02:55 35.05453 -89.98147 368 ft 1 kts 31°
2026-05-07 02:56 35.05443 -89.98160 392 ft 1 kts 257°
2026-05-07 02:56 35.05386 -89.98273 415 ft 83 kts 243°
2026-05-07 02:56 35.04402 -89.98871 297 ft 161 kts 184°
2026-05-07 02:56 35.03184 -89.99096 576 ft 189 kts 199°
2026-05-07 02:57 35.01964 -89.99603 635 ft 197 kts 191°
2026-05-07 02:57 35.00739 -89.99342 633 ft 155 kts 122°
2026-05-07 02:57 35.01024 -89.98389 1016 ft 151 kts 353°
2026-05-07 02:57 35.02045 -89.98670 408 ft 177 kts 354°
2026-05-07 02:58 35.03334 -89.98710 346 ft 197 kts 359°
2026-05-07 02:58 35.04831 -89.98714 872 ft 199 kts
2026-05-07 02:58 35.06138 -89.98757 1105 ft 173 kts 347°
2026-05-07 02:58 35.07203 -89.99795 1241 ft 234 kts 303°
2026-05-07 02:59 35.07310 -90.01596 1451 ft 211 kts 242°
2026-05-07 02:59 35.06172 -90.02413 1470 ft 191 kts 185°
2026-05-07 02:59 35.04517 -90.02529 1713 ft 277 kts 181°
2026-05-07 02:59 35.02684 -90.02599 1179 ft 245 kts 180°
2026-05-07 03:00 35.01109 -90.02532 868 ft 206 kts 163°
2026-05-07 03:00 35.00481 -90.01236 1185 ft 228 kts 65°
2026-05-07 03:00 35.01237 -89.99944 813 ft 160 kts 60°
2026-05-07 03:00 35.01863 -89.98797 493 ft 174 kts 23°
2026-05-07 03:01 35.02995 -89.98704 313 ft 154 kts 359°
2026-05-07 03:01 35.04543 -89.98726 702 ft 256 kts 359°
2026-05-07 03:01 35.06148 -89.98793 1102 ft 206 kts 355°
2026-05-07 03:01 35.07563 -89.99780 1278 ft 251 kts 301°
2026-05-07 03:02 35.07477 -90.01606 1508 ft 218 kts 242°
2026-05-07 03:02 35.06145 -90.02505 1323 ft 212 kts 187°
2026-05-07 03:02 35.04577 -90.02604 947 ft 243 kts 178°
2026-05-07 03:02 35.02999 -90.02545 538 ft 237 kts 179°
2026-05-07 03:03 35.01487 -90.02519 740 ft 188 kts 172°
2026-05-07 03:03 35.00526 -90.01716 637 ft 193 kts 98°
2026-05-07 03:03 35.00688 -90.00365 671 ft 189 kts 66°
2026-05-07 03:03 35.01368 -89.98871 837 ft 163 kts 19°
2026-05-07 03:04 35.02276 -89.98721 536 ft 118 kts
2026-05-07 03:04 35.02785 -89.98697 343 ft 7 kts
2026-05-07 03:04 35.02960 -89.98700 313 ft 39 kts 359°
2026-05-07 03:04 35.03173 -89.98677 314 ft 11 kts 61°
2026-05-07 03:05 35.03137 -89.98625 313 ft 11 kts 144°
2026-05-07 03:05 35.03112 -89.98600 313 ft 1 kts 135°
2026-05-07 03:05 35.03162 -89.98575 314 ft 21 kts
2026-05-07 03:05 35.03302 -89.98575 315 ft 16 kts 359°
2026-05-07 03:06 35.03395 -89.98577 314 ft 9 kts 359°
2026-05-07 03:06 35.03448 -89.98577 313 ft 7 kts 359°
2026-05-07 03:06 35.03477 -89.98579 317 ft 1 kts
2026-05-07 03:06 35.03517 -89.98577 312 ft 0 kts 356°
2026-05-07 03:07 35.03668 -89.98574 319 ft 34 kts
2026-05-07 03:07 35.03977 -89.98583 308 ft 40 kts
2026-05-07 03:07 35.04302 -89.98587 298 ft 30 kts
2026-05-07 03:07 35.04484 -89.98589 295 ft 23 kts
2026-05-07 03:08 35.04580 -89.98593 303 ft 1 kts 357°
2026-05-07 03:08 35.04766 -89.98609 314 ft 44 kts
2026-05-07 03:08 35.05038 -89.98568 301 ft 31 kts 15°
2026-05-07 03:08 35.05324 -89.98508 298 ft 39 kts
2026-05-07 03:09 35.05564 -89.98484 297 ft 31 kts 28°
2026-05-07 03:09 35.05484 -89.98296 288 ft 20 kts 111°